Temp
4 4 4 4 3 3 3 3 3 3 4 4 4 4 4 3 3 2 2 1 0 -0 -1 -1 -1 -2 -2 -2 -2 -2 -2 -3 -3 -3 -3 -3 -3 -3 -3 -4 -4 -4
4 4 4 4 3 3 3 3 3 3 4 4 4 4 4 3 3 2 2 1 0 -0 -1 -1 -1 -2 -2 -2 -2 -3 -2 -3 -3 -4 -4 -4 -4 -4 -4 -4 -4 -4
4 4 4 3 3 3 3 3 3 3 4 4 4 4 4 3 3 2 2 1 0 -0 -1 -1 -1 -2 -2 -2 -3 -3 -3 -3 -3 -4 -4 -4 -4 -4 -4 -4 -4 -4
4 4 3 3 3 3 3 3 3 3 3 4 4 4 4 3 3 3 2 1 1 0 -1 -1 -1 -2 -2 -2 -2 -3 -3 -3 -3 -4 -4 -4 -4 -4 -4 -4 -4 -5
4 4 3 3 3 3 3 3 3 3 3 4 4 4 4 3 3 3 2 1 1 0 -0 -1 -1 -2 -2 -3 -3 -3 -3 -3 -3 -4 -4 -4 -4 -4 -4 -4 -4 -5
4 4 3 3 3 3 3 3 3 3 3 3 3 3 3 3 3 3 2 1 1 1 -0 -1 -1 -2 -2 -2 -3 -3 -3 -3 -4 -4 -4 -4 -4 -4 -4 -4 -4 -4
4 4 3 3 3 3 3 3 3 3 3 3 3 3 3 3 3 3 2 2 1 1 0 -0 -1 -1 -1 -2 -2 -3 -3 -3 -4 -4 -4 -4 -4 -4 -4 -4 -4 -4
4 4 3 3 3 3 3 3 3 3 3 3 3 3 3 3 3 3 2 2 2 1 1 -0 -0 -1 -1 -1 -2 -2 -3 -3 -3 -3 -4 -4 -4 -4 -4 -4 -4 -4
4 4 3 3 3 3 3 3 3 3 3 3 3 3 3 3 3 3 2 2 2 2 1 1 -0 -1 -1 -1 -1 -2 -2 -2 -3 -3 -3 -3 -4 -4 -4 -5 -5 -4
4 4 3 3 3 3 3 3 3 3 3 3 3 3 3 3 3 3 2 2 2 2 1 1 1 -0 -0 -1 -1 -1 -2 -2 -2 -3 -3 -4 -4 -4 -4 -4 -4 -4
4 4 3 3 3 3 3 3 3 3 3 3 3 3 3 3 3 3 2 2 2 2 2 1 1 1 -0 -0 -1 -1 -2 -2 -2 -2 -3 -3 -4 -4 -4 -4 -4 -4
4 4 3 3 3 3 3 3 3 3 3 3 3 3 3 3 3 3 3 2 2 2 2 1 1 1 0 -0 -0 -1 -1 -2 -2 -2 -2 -3 -3 -3 -3 -4 -4 -4
4 3 3 3 3 3 3 3 3 3 3 3 3 3 2 2 3 3 3 2 2 2 2 2 1 1 1 0 0 -0 -1 -2 -2 -2 -2 -2 -3 -3 -3 -4 -4 -5
4 3 3 3 3 3 3 3 3 3 3 3 3 3 2 2 2 2 2 2 2 2 2 2 1 1 1 1 0 0 -1 -1 -1 -2 -2 -2 -2 -2 -2 -3 -4 -4
4 3 3 3 3 3 3 3 3 3 3 3 3 3 2 2 2 2 2 2 2 2 2 2 1 1 1 1 1 0 -0 -1 -1 -1 -1 -1 -1 -1 -2 -2 -3 -4
3 3 3 3 3 3 3 3 2 3 3 3 3 3 2 2 2 2 2 2 2 2 2 2 2 1 1 1 1 0 0 -0 -1 -1 -1 -1 -1 -1 -1 -2 -2 -3
3 3 3 3 3 3 3 3 2 2 3 2 2 2 2 2 2 2 2 2 2 2 2 2 2 1 1 1 1 1 0 0 -0 -0 -1 -0 -1 -1 -1 -1 -2 -2
3 3 3 3 3 3 3 2 2 2 2 2 2 2 2 2 2 2 2 2 2 2 2 2 2 1 1 1 1 1 1 1 0 0 0 0 -0 -0 -1 -1 -1 -2
3 3 3 3 2 2 2 2 2 2 2 2 2 2 2 2 2 2 2 2 2 2 2 2 2 1 1 1 1 1 1 1 1 1 1 0 0 0 0 -0 -1 -1
3 3 3 3 2 2 2 2 2 2 2 2 2 2 2 2 2 2 2 1 1 1 1 1 1 1 1 1 1 1 1 1 1 1 1 1 1 1 0 -0 -1 -1
3 3 3 2 2 2 2 2 2 2 2 2 2 2 2 2 2 2 1 1 1 1 1 1 1 1 1 1 1 1 1 1 1 1 1 1 1 0 0 -0 -1 -1
3 3 3 2 2 2 2 2 2 2 2 2 2 2 2 2 2 2 1 1 1 1 1 1 1 1 1 1 1 1 1 1 1 1 1 1 1 0 -0 -0 -1 -1
3 3 3 2 2 2 2 2 2 2 2 2 2 2 2 2 2 1 1 1 1 1 1 1 1 1 0 0 0 0 0 0 0 0 0 0 0 -0 -0 -1 -1 -1
3 3 3 2 2 2 2 2 2 2 2 2 2 2 2 2 1 1 1 1 1 1 1 1 1 0 0 0 0 0 0 0 0 -0 -0 -0 -0 -1 -1 -1 -1 -1
3 3 3 2 2 2 2 2 2 2 2 2 2 2 1 1 1 1 1 1 1 1 1 0 0 0 0 0 0 0 -0 -0 -0 -0 -0 -1 -1 -1 -1 -1 -1 -1
3 3 3 2 2 2 2 2 2 2 2 2 2 2 1 1 1 1 1 1 1 1 0 0 0 -0 -0 -0 -0 -0 -0 -0 -0 -0 -1 -1 -1 -1 -1 -1 -1 -1
Height
3115 3113 3111 3108 3106 3104 3101 3099 3097 3095 3093 3091 3089 3087 3085 3083 3081 3079 3077 3074 3072 3070 3068 3065 3063 3061 3059 3056 3054 3052 3049 3047 3044 3042 3039 3037 3034 3032 3029 3027 3024 3022
3116 3113 3111 3109 3106 3104 3102 3100 3097 3095 3093 3091 3089 3087 3085 3083 3081 3079 3078 3075 3073 3071 3069 3067 3065 3063 3061 3059 3056 3054 3052 3050 3047 3045 3043 3041 3038 3036 3033 3031 3029 3027
3116 3113 3111 3109 3107 3104 3102 3100 3098 3096 3094 3092 3090 3088 3086 3084 3082 3080 3079 3077 3074 3072 3070 3068 3066 3064 3063 3060 3058 3056 3054 3052 3050 3047 3046 3043 3041 3039 3037 3034 3033 3031
3116 3114 3111 3109 3107 3105 3102 3100 3098 3097 3095 3093 3091 3089 3087 3085 3083 3081 3079 3078 3076 3074 3071 3069 3067 3066 3064 3062 3060 3058 3056 3054 3052 3050 3048 3046 3044 3042 3040 3038 3036 3034
3116 3114 3112 3110 3107 3105 3103 3101 3099 3097 3095 3093 3091 3089 3087 3085 3083 3082 3080 3078 3077 3075 3072 3070 3068 3067 3065 3064 3062 3060 3058 3056 3054 3052 3051 3049 3047 3045 3043 3041 3039 3037
3117 3114 3112 3110 3108 3105 3103 3101 3100 3098 3096 3094 3092 3090 3088 3086 3084 3082 3081 3079 3077 3075 3073 3071 3070 3068 3066 3065 3063 3061 3059 3058 3056 3054 3053 3051 3049 3047 3046 3044 3042 3040
3117 3115 3112 3110 3108 3106 3104 3102 3100 3098 3097 3095 3093 3091 3089 3087 3085 3083 3081 3080 3078 3076 3074 3072 3071 3069 3068 3066 3064 3062 3061 3059 3057 3055 3054 3052 3051 3049 3048 3046 3044 3042
3117 3115 3113 3111 3109 3107 3104 3102 3101 3099 3097 3095 3093 3091 3089 3087 3085 3083 3082 3080 3078 3077 3075 3073 3071 3070 3068 3067 3065 3064 3062 3060 3059 3057 3055 3053 3052 3051 3049 3047 3046 3044
3117 3115 3113 3111 3109 3107 3105 3103 3101 3100 3098 3096 3094 3092 3090 3088 3086 3084 3082 3081 3079 3077 3075 3074 3072 3070 3069 3068 3066 3065 3063 3062 3060 3058 3056 3055 3053 3052 3050 3049 3047 3046
3117 3115 3113 3111 3110 3108 3106 3104 3102 3100 3099 3097 3095 3093 3091 3089 3087 3085 3083 3081 3079 3078 3076 3074 3073 3071 3070 3068 3067 3066 3064 3063 3061 3059 3058 3056 3055 3053 3052 3050 3048 3047
3117 3115 3114 3112 3110 3108 3106 3104 3102 3101 3099 3098 3096 3094 3092 3090 3088 3086 3084 3082 3080 3078 3076 3075 3073 3072 3070 3069 3067 3066 3065 3064 3062 3060 3058 3057 3056 3054 3053 3051 3049 3048
3117 3115 3114 3112 3111 3109 3107 3105 3103 3102 3100 3099 3097 3095 3092 3090 3088 3086 3084 3083 3081 3079 3077 3076 3074 3073 3071 3070 3068 3067 3065 3064 3063 3061 3060 3058 3056 3055 3054 3052 3051 3049
3117 3116 3114 3112 3111 3109 3107 3105 3104 3102 3101 3099 3098 3095 3093 3091 3089 3087 3085 3083 3081 3079 3078 3076 3075 3073 3072 3071 3069 3067 3066 3065 3063 3062 3061 3059 3057 3056 3055 3053 3052 3050
3117 3116 3114 3113 3111 3109 3107 3106 3104 3103 3102 3100 3098 3096 3094 3092 3090 3088 3086 3084 3082 3080 3079 3077 3076 3074 3073 3071 3070 3068 3067 3065 3064 3063 3061 3060 3058 3056 3055 3054 3053 3051
3117 3116 3114 3113 3112 3110 3108 3106 3105 3104 3103 3101 3099 3097 3095 3093 3091 3089 3087 3085 3083 3081 3079 3078 3076 3075 3073 3072 3070 3069 3067 3066 3065 3063 3062 3060 3059 3057 3055 3054 3053 3052
3117 3116 3115 3113 3112 3110 3108 3106 3105 3104 3103 3102 3100 3098 3096 3094 3092 3090 3088 3086 3084 3082 3080 3078 3077 3075 3074 3072 3071 3069 3068 3067 3065 3064 3062 3061 3059 3057 3056 3055 3054 3053
3117 3116 3115 3114 3112 3110 3108 3107 3106 3105 3104 3102 3101 3099 3097 3095 3093 3091 3089 3087 3085 3083 3081 3079 3077 3076 3074 3073 3071 3070 3069 3067 3065 3064 3063 3061 3060 3058 3057 3056 3054 3053
3117 3116 3115 3114 3112 3110 3109 3107 3106 3105 3104 3103 3102 3100 3098 3096 3094 3092 3090 3088 3086 3084 3082 3080 3078 3076 3075 3073 3072 3071 3069 3068 3066 3065 3063 3062 3060 3059 3057 3056 3055 3053
3117 3116 3115 3114 3112 3110 3109 3108 3107 3106 3105 3104 3102 3101 3099 3097 3095 3093 3091 3089 3087 3085 3083 3081 3079 3077 3075 3074 3072 3071 3070 3068 3067 3065 3064 3062 3061 3059 3058 3057 3055 3054
3117 3116 3115 3114 3112 3111 3109 3108 3107 3106 3105 3104 3103 3102 3100 3098 3096 3094 3092 3090 3088 3086 3084 3082 3080 3078 3076 3075 3073 3072 3070 3069 3067 3066 3064 3063 3061 3060 3058 3057 3056 3055
3117 3116 3115 3114 3112 3111 3109 3108 3107 3107 3106 3105 3104 3103 3101 3099 3097 3095 3093 3091 3089 3087 3085 3083 3081 3079 3078 3076 3074 3073 3071 3070 3068 3066 3065 3063 3062 3060 3059 3058 3056 3055
3117 3116 3115 3114 3113 3111 3110 3109 3108 3107 3107 3106 3105 3103 3102 3100 3098 3097 3095 3093 3091 3088 3086 3084 3083 3081 3079 3077 3076 3074 3072 3070 3069 3067 3066 3064 3062 3061 3060 3058 3057 3056
3117 3116 3115 3114 3113 3111 3110 3109 3109 3108 3108 3107 3106 3105 3103 3102 3100 3098 3096 3094 3092 3090 3088 3086 3084 3082 3081 3079 3077 3075 3073 3071 3070 3068 3067 3065 3063 3062 3060 3059 3058 3056
3117 3116 3115 3114 3113 3112 3110 3110 3109 3109 3108 3108 3107 3106 3104 3103 3101 3099 3097 3095 3093 3091 3089 3087 3086 3084 3082 3080 3078 3076 3074 3073 3071 3069 3068 3066 3064 3063 3061 3060 3058 3057
3116 3116 3115 3114 3113 3112 3111 3110 3110 3110 3109 3108 3108 3106 3105 3103 3102 3100 3098 3096 3094 3092 3091 3089 3087 3085 3083 3082 3080 3078 3076 3074 3072 3070 3069 3067 3065 3064 3062 3061 3059 3058
3116 3115 3115 3114 3113 3112 3111 3111 3111 3111 3110 3109 3108 3107 3106 3104 3103 3101 3099 3097 3095 3093 3092 3090 3088 3086 3084 3083 3081 3079 3077 3075 3073 3071 3070 3068 3067 3065 3064 3062 3060 3059
Wind_Speed
20 22 23 25 25 25 25 24 23 22 22 23 23 22 21 21 22 23 24 24 24 24 24 25 25 26 26 27 28 29 30 31 31 33 34 35 36 37 37 37 37 35
20 21 23 24 25 25 24 24 23 22 22 22 22 22 21 21 21 22 23 23 23 23 23 23 23 24 25 25 26 26 28 29 30 30 31 32 33 34 34 35 35 34
19 21 22 24 25 24 24 24 23 22 21 22 22 22 21 21 21 21 22 22 22 22 22 21 22 23 23 23 24 24 25 27 28 28 28 29 30 30 31 30 30 29
19 20 22 23 24 24 24 24 23 22 21 22 22 22 21 21 20 20 21 21 21 22 22 21 21 21 22 22 22 23 24 25 25 26 25 25 26 27 27 27 25 23
18 19 21 23 24 24 23 23 23 22 21 21 22 22 22 21 20 20 20 20 21 21 21 21 21 20 20 20 20 20 21 22 23 23 23 22 23 24 24 24 22 20
18 19 21 22 23 23 23 23 23 22 21 21 21 21 22 21 20 20 19 19 20 21 21 21 20 20 19 18 17 17 18 19 21 21 22 21 21 22 22 21 20 19
17 18 20 22 23 22 22 22 22 22 22 21 21 21 21 21 20 19 19 19 19 20 20 20 20 20 19 18 17 16 17 17 18 20 21 22 21 21 21 20 19 17
17 18 19 21 22 22 22 21 22 22 22 21 20 21 21 21 21 20 19 18 19 19 20 20 20 20 20 20 19 17 17 17 18 19 20 21 21 20 20 20 20 19
16 17 19 21 22 22 21 21 21 22 22 21 20 20 20 21 21 20 19 18 18 19 19 20 20 20 20 21 20 19 19 19 19 19 19 20 20 20 20 19 19 19
16 17 18 21 21 21 21 20 20 21 21 21 20 20 20 20 20 20 19 18 18 18 19 19 19 20 20 21 21 21 21 20 20 20 20 20 20 20 20 18 18 17
15 16 18 20 21 21 21 20 20 21 21 21 21 20 20 20 20 20 19 18 18 18 18 18 19 19 19 20 20 21 21 21 21 21 20 20 19 19 19 18 17 16
15 16 17 19 20 21 21 20 20 20 20 21 21 20 19 20 20 20 19 18 18 18 17 18 18 18 18 19 19 20 21 21 21 21 21 20 19 18 18 18 17 16
14 15 17 19 20 20 21 21 20 20 20 20 21 20 20 19 20 20 19 19 19 18 18 18 18 18 18 18 18 19 19 20 21 21 20 19 19 18 18 17 16 15
13 14 16 18 19 20 21 21 21 20 19 20 21 21 21 20 19 20 20 20 19 19 19 18 18 18 18 18 18 18 18 19 19 20 20 19 18 18 18 18 16 14
12 13 15 17 18 19 21 21 21 20 19 19 20 21 21 20 20 20 20 20 20 20 19 18 18 17 17 17 18 18 18 17 18 18 19 19 18 18 19 19 18 15
12 13 14 16 18 19 21 21 21 20 18 18 20 21 21 20 20 20 20 21 21 20 20 19 18 17 17 17 17 17 16 16 16 17 17 17 18 18 19 18 17 16
11 12 14 16 17 18 20 21 20 19 18 18 19 20 20 20 20 21 21 21 21 21 20 19 18 18 17 17 16 16 15 15 15 15 15 16 16 17 18 18 18 17
10 11 13 15 16 18 19 20 20 18 17 18 19 20 20 20 21 21 21 21 21 21 20 20 19 18 18 17 16 15 14 14 14 14 15 15 16 16 17 18 18 18
10 11 13 14 16 17 19 20 19 18 17 17 18 19 19 20 21 21 21 21 21 21 21 20 20 19 19 18 17 15 15 14 14 14 14 15 15 16 17 18 19 19
9 10 12 13 15 17 18 19 19 17 16 16 17 18 19 20 21 21 21 21 21 21 21 21 21 20 20 19 17 16 16 15 14 14 15 15 15 16 17 17 17 17
8 10 11 12 14 16 18 18 17 16 15 15 16 17 18 19 20 21 21 21 21 21 21 21 21 21 20 19 17 17 16 15 15 14 15 15 15 16 16 16 16 16
8 9 10 11 13 16 17 17 16 15 14 15 16 17 17 18 19 20 21 21 22 22 22 22 21 20 19 18 17 17 16 16 15 15 15 15 16 16 16 16 16 16
7 8 9 10 12 15 16 16 15 14 14 15 15 16 16 17 18 19 20 21 22 23 23 22 21 20 19 18 17 17 16 16 15 15 15 15 16 16 16 16 16 16
6 8 9 10 12 14 14 14 14 13 14 14 15 15 16 17 18 19 20 21 22 23 22 22 21 20 19 18 17 16 16 15 15 15 15 15 16 15 15 15 15 16
6 7 7 9 11 12 13 13 13 13 13 13 14 14 15 16 17 19 20 21 22 22 23 22 22 21 19 18 17 16 16 15 15 16 16 16 16 15 15 15 15 15
5 6 6 7 9 10 11 12 12 12 12 12 13 14 15 16 18 19 20 21 22 23 23 23 22 21 20 19 17 17 17 16 17 17 17 17 16 15 15 15 15 15
Wind_Direction
5 4 3 3 3 4 7 9 9 9 9 9 9 9 10 10 11 13 14 16 20 25 29 30 28 25 23 24 27 29 32 37 40 42 43 43 44 46 50 53 53 53
5 4 3 3 3 5 8 10 10 10 10 9 9 9 9 9 11 13 14 15 19 23 27 29 29 27 24 25 29 30 32 36 39 41 41 40 41 43 45 49 52 54
6 4 3 3 4 5 8 10 10 11 10 10 10 9 9 9 10 13 13 14 17 21 25 27 29 29 25 25 28 30 32 35 38 39 38 37 37 39 41 45 49 53
6 4 3 3 5 6 7 10 10 10 10 11 11 9 9 9 9 12 13 12 15 19 22 25 26 27 26 24 25 28 31 34 37 39 38 36 35 36 38 41 44 50
7 5 2 4 6 6 7 9 9 9 10 11 11 9 10 9 9 11 12 11 12 16 20 22 24 24 24 24 23 24 29 32 34 36 37 37 36 36 36 36 37 41
7 4 2 4 7 7 7 8 8 9 10 11 11 10 10 9 8 9 10 10 10 13 17 19 22 22 21 23 21 20 23 25 27 29 31 34 37 37 36 35 34 36
6 4 2 5 8 8 7 8 8 8 10 11 11 11 11 10 9 8 9 9 9 10 13 15 18 20 20 20 20 17 16 17 19 22 26 31 35 37 37 36 35 34
4 3 2 5 8 9 8 8 8 8 9 11 11 11 12 10 9 8 7 8 8 8 10 11 13 16 19 19 20 18 16 15 19 23 25 28 30 33 34 34 34 33
2 3 2 5 8 9 9 9 8 7 9 11 12 11 12 11 10 9 7 7 7 7 8 8 10 12 14 16 18 18 17 18 22 27 28 27 26 27 30 30 29 31
1 2 2 5 8 8 10 11 9 7 8 11 12 11 11 12 11 10 8 6 6 6 6 6 8 10 11 13 13 14 14 16 18 22 25 27 25 24 25 25 23 25
359 1 3 5 7 8 10 12 11 8 8 11 13 12 11 11 12 11 10 7 6 5 5 4 5 7 9 10 11 10 10 11 13 15 18 20 22 21 22 20 17 18
358 0 3 4 6 8 11 13 12 8 7 10 12 13 12 12 12 11 10 9 7 5 4 3 3 4 5 8 10 10 8 7 8 10 14 16 15 17 21 21 14 11
358 360 2 4 5 8 11 14 13 8 7 10 12 12 13 13 13 12 11 11 9 7 5 3 2 3 4 5 8 10 9 7 5 6 10 13 13 13 20 26 21 10
357 358 2 4 4 8 12 14 13 9 8 10 11 11 12 14 13 13 13 12 11 9 7 5 4 3 3 4 7 10 9 7 5 4 4 9 12 14 20 27 27 18
355 358 1 3 4 8 12 15 14 9 8 11 13 11 11 13 13 13 15 15 14 12 10 9 7 5 5 6 8 9 7 6 6 4 3 5 9 15 20 25 25 21
353 356 0 3 5 8 12 15 14 9 8 12 14 12 12 13 13 13 16 17 16 15 14 12 10 9 8 8 9 7 5 6 7 6 5 6 9 13 17 22 24 22
351 354 359 2 5 9 13 15 14 9 9 14 15 14 13 14 15 15 16 18 18 17 16 14 13 11 11 11 9 7 5 7 10 10 10 11 13 14 14 18 22 24
349 353 358 1 5 10 13 15 13 10 11 16 17 15 14 16 18 18 18 18 18 18 18 17 15 13 13 13 10 6 7 9 12 13 14 15 16 17 16 16 19 21
347 353 357 0 5 10 13 14 12 11 13 18 18 16 15 18 21 21 20 21 20 20 19 18 17 16 15 14 10 7 7 10 12 14 16 17 17 18 19 17 17 17
346 352 357 1 5 10 13 14 12 12 16 19 20 18 18 20 23 23 22 23 23 22 21 19 18 17 15 13 9 8 8 10 12 14 17 18 17 18 20 19 17 16
344 351 357 2 7 10 12 14 14 14 18 22 22 20 20 22 24 24 23 24 25 25 24 22 20 18 16 13 9 8 9 10 13 16 18 18 18 19 19 18 18 18
343 350 357 3 8 12 14 15 16 18 22 25 24 23 24 26 28 28 26 25 26 26 25 23 21 19 16 14 11 9 9 11 14 17 19 18 19 20 18 17 18 17
340 349 358 5 10 14 17 19 20 23 26 27 27 28 29 31 32 31 29 28 28 27 26 23 21 19 17 14 12 11 10 13 16 18 19 20 20 19 16 16 16 15
339 350 359 6 12 18 23 26 28 30 31 31 33 34 34 34 35 33 31 30 29 28 25 23 21 19 17 15 13 12 13 16 19 20 21 23 22 19 16 15 15 14
336 350 1 8 15 24 32 34 34 36 36 37 39 38 36 35 34 34 31 29 28 27 24 23 21 18 16 15 14 15 16 18 21 22 23 24 21 19 18 17 16 15
333 350 3 10 18 32 42 41 39 41 41 40 39 37 35 33 32 31 30 27 25 24 22 20 19 17 16 15 15 17 19 20 23 24 24 23 21 19 19 19 19 17